Location: Old Broadwell Mill Observatory
(33.8015°N, 85.8137°W)
Time: 17:14:44
(UTC-05:00)

Amateur Radio Satellites - All Passes

Search period start: 01 August 2015 16:44
Search period end: 02 August 2015 16:44
Location: Old Broadwell Mill Observatory, 33.8015°N, 85.8137°W

Satellite Date Start Highest point End Downlink Frequencies (MHz)
Time Altitude Azimuth
STARS 01 Aug 16:48:40 16:52:34 31° 288° (WNW) 16:56:25 437.465
JAS-2 01 Aug 16:58:37 17:01:31 13° 275° (W) 17:04:04 435.910
CUTE-I 01 Aug 17:18:32 17:22:29 22° 68° (ENE) 17:26:36 437.470
GONETS M04 01 Aug 17:22:21 17:31:04 72° 82° (E) 17:39:48
VERMONT LUNAR 01 Aug 17:47:57 17:51:06 81° 154° (SSE) 17:54:18 437.305
AO-7 01 Aug 17:58:39 18:02:36 13° 271° (W) 18:05:47 29.400- 29.500
Cubesat XI-IV 01 Aug 18:01:13 18:06:28 58° 74° (ENE) 18:11:46 437.490
PHONESAT 2.4 01 Aug 18:10:45 18:12:42 14° 142° (SE) 18:14:44 2401.200-2431.200
MOZHAYETS 4 01 Aug 18:11:04 18:14:36 21° 290° (WNW) 18:18:01
SO-50 01 Aug 18:13:24 18:18:12 50° 58° (ENE) 18:22:53 436.795
PCSat 01 Aug 18:25:19 18:30:39 57° 61° (ENE) 18:35:59 145.827
CUBESAT XI-V 01 Aug 18:28:35 18:32:56 42° 98° (E) 18:37:19 437.345
Cosmos 2499 01 Aug 18:42:56 18:51:35 59° 79° (E) 19:00:18 435.465 / 435.565
BRITE-PL 01 Aug 18:49:26 18:52:09 17° 71° (ENE) 18:54:57 437.365/2234.400
CUTE-I 01 Aug 18:57:18 19:02:20 39° 262° (W) 19:07:20 437.470
GOMX 1 01 Aug 18:59:16 19:00:21 11° 69° (ENE) 19:01:42 467.674
HO-68 01 Aug 19:06:16 19:10:49 19° 62° (ENE) 19:15:41 435.675
STRAND 1 01 Aug 19:10:33 19:15:06 33° 97° (E) 19:19:43 437.568
PRISM 01 Aug 19:21:04 19:24:45 32° 97° (E) 19:28:26 437.425
GONETS M04 01 Aug 19:21:14 19:27:10 20° 277° (W) 19:32:37
VERMONT LUNAR 01 Aug 19:25:14 19:28:03 28° 349° (N) 19:30:52 437.305
ISS 01 Aug 19:31:22 19:33:41 19° 129° (SE) 19:36:05 145.825
Cubesat XI-IV 01 Aug 19:44:05 19:47:01 14° 269° (W) 19:49:38 437.490
PHONESAT 2.4 01 Aug 19:46:50 19:50:20 89° 176° (S) 19:53:52 2401.200-2431.200
SO-50 01 Aug 19:55:24 19:58:21 16° 251° (WSW) 20:01:04 436.795
RS-15 01 Aug 19:57:23 20:05:54 29° 106° (ESE) 20:15:01 29.354- 29.394
CUBESAT XI-V 01 Aug 20:07:19 20:10:04 15° 291° (WNW) 20:12:38 437.345
PCSat 01 Aug 20:10:30 20:13:39 15° 254° (WSW) 20:16:31 145.827
COMPASS 1 01 Aug 20:16:45 20:20:15 27° 72° (ENE) 20:23:52 437.405
DOVE 4 01 Aug 20:19:33 20:23:40 61° 76° (ENE) 20:27:46 437.250
CINEMA 3 01 Aug 20:25:09 20:28:38 27° 72° (ENE) 20:32:14 145.822/145.860
BRITE-PL 01 Aug 20:26:29 20:30:33 32° 262° (W) 20:34:22 437.365/2234.400
SEEDS 01 Aug 20:32:06 20:36:13 54° 76° (ENE) 20:40:24 437.485
GOMX 1 01 Aug 20:34:04 20:38:13 47° 261° (W) 20:42:14 467.674
CUTE 1.7 + AOD 2 01 Aug 20:35:49 20:40:04 78° 77° (ENE) 20:44:22 437.475
UWE-3 01 Aug 20:36:57 20:38:41 13° 68° (ENE) 20:40:39 435.000/436.395/437.385
Cosmos 2499 01 Aug 20:37:10 20:44:17 27° 274° (W) 20:51:04 435.465 / 435.565
DELFI C3 01 Aug 20:41:47 20:43:01 11° 69° (ENE) 20:44:29 145.870
Oscar 11 01 Aug 20:43:26 20:46:34 20° 71° (ENE) 20:49:51 145.826/435.025
CANX-2 01 Aug 20:44:18 20:48:34 72° 259° (W) 20:52:51 2200.000
STRAND 1 01 Aug 20:50:07 20:54:09 23° 291° (WNW) 20:58:04 437.568
HO-68 01 Aug 20:50:49 20:57:57 72° 257° (WSW) 21:05:06 435.675
CUBEBUG 2 01 Aug 20:52:01 20:55:23 25° 72° (ENE) 20:58:55 437.445
AAUSAT CUBESAT 2 01 Aug 20:56:54 21:01:04 72° 77° (ENE) 21:05:17 437.432
PRISM 01 Aug 20:57:21 20:59:57 16° 291° (WNW) 21:02:22 437.425
VERMONT LUNAR 01 Aug 21:02:37 21:05:19 24° 6° (N) 21:07:59 437.305
ISS 01 Aug 21:07:02 21:09:58 30° 323° (NW) 21:12:54 145.825
PHONESAT 2.4 01 Aug 21:25:25 21:28:34 30° 350° (N) 21:31:43 2401.200-2431.200
ZACube-1 01 Aug 21:45:15 21:49:22 65° 76° (ENE) 21:53:36 437.345
M-CUBED/EXP-1 PRIME 01 Aug 21:47:46 21:51:59 31° 100° (E) 21:56:05 437.505
COMPASS 1 01 Aug 21:52:47 21:55:56 20° 266° (W) 21:58:58 437.405
CINEMA 3 01 Aug 22:03:00 22:05:55 18° 267° (W) 22:08:42 145.822/145.860
50 SAT 01 Aug 22:04:22 22:06:47 17° 70° (ENE) 22:09:22 437.505
FUNcube-1 01 Aug 22:06:37 22:10:46 69° 259° (W) 22:15:00 145.935
RS-15 01 Aug 22:06:44 22:17:33 65° 304° (WNW) 22:28:42 29.354- 29.394
TIGRISAT 01 Aug 22:07:41 22:09:41 13° 90° (E) 22:11:57 435.000
ANTELSAT 01 Aug 22:09:26 22:11:50 14° 91° (E) 22:14:29 437.575/2403.000
UWE-3 01 Aug 22:10:53 22:14:51 43° 262° (W) 22:18:54 435.000/436.395/437.385
DELFI C3 01 Aug 22:13:49 22:17:43 45° 262° (W) 22:21:38 145.870
AUBIESAT-1 01 Aug 22:16:11 22:20:49 55° 104° (ESE) 22:25:17 437.475
Oscar 11 01 Aug 22:18:52 22:22:36 28° 264° (W) 22:26:19 145.826/435.025
UKube-1 01 Aug 22:19:49 22:23:49 39° 73° (ENE) 22:27:52 .
HUMSAT D 01 Aug 22:26:20 22:30:27 79° 77° (ENE) 22:34:39 437.325/437.525
AISAT 01 Aug 22:27:30 22:31:21 31° 72° (ENE) 22:35:16 437.250
CUBEBUG 2 01 Aug 22:28:54 22:32:05 20° 266° (W) 22:35:12 437.445
BEESAT 2 01 Aug 22:33:44 22:36:54 23° 112° (ESE) 22:40:11 435.950
VERMONT LUNAR 01 Aug 22:39:13 22:42:22 64° 22° (NNE) 22:45:30 437.305
CUBEBUG 1 01 Aug 22:39:57 22:43:20 23° 71° (ENE) 22:46:47 437.445
POLYITAN 1 01 Aug 22:48:19 22:50:08 13° 91° (E) 22:52:11 437.675
DX 1 01 Aug 22:48:39 22:53:00 81° 259° (W) 22:57:21 434.975-435.025
AIST 1 01 Aug 22:51:35 22:55:27 34° 79° (ENE) 22:59:21
UNISAT 6 01 Aug 22:59:07 23:03:43 53° 100° (E) 23:08:20 437.425
PHONESAT 2.4 01 Aug 23:03:59 23:07:05 28° 7° (N) 23:10:11 2401.200-2431.200
POPSAT HIP 1 01 Aug 23:04:02 23:07:05 20° 94° (E) 23:10:16 437.405
VELOX 1 01 Aug 23:05:41 23:10:06 87° 77° (ENE) 23:14:31 145.980
BUGSAT 1 01 Aug 23:06:00 23:07:00 11° 91° (E) 23:08:16 437.445
QB50P2 01 Aug 23:11:31 23:15:02 25° 96° (E) 23:18:37 145.880/145.840
BEESAT 3 01 Aug 23:11:33 23:15:36 90° 291° (WNW) 23:19:42 437.485
SPROUT 01 Aug 23:14:08 23:16:30 15° 69° (ENE) 23:19:04 437.525
ESTCUBE 1 01 Aug 23:20:07 23:24:40 86° 75° (ENE) 23:29:12 437.505/2401.250
M-CUBED/EXP-1 PRIME 01 Aug 23:22:41 23:26:34 24° 295° (WNW) 23:30:16 437.505
TISAT 1 01 Aug 23:24:14 23:25:25 11° 68° (ENE) 23:26:50 437.305
Cosmos 2491 01 Aug 23:24:34 23:33:12 64° 81° (E) 23:41:50 435.465 / 435.565
DUCHIFAT 1 01 Aug 23:34:46 23:38:51 45° 99° (E) 23:42:56 145.980
50 SAT 01 Aug 23:37:49 23:41:09 27° 264° (W) 23:44:30 437.505
QB50P1 01 Aug 23:38:34 23:42:44 53° 99° (E) 23:46:55 145.935-145.965
NANOSAT C BR1 01 Aug 23:39:29 23:43:39 53° 100° (E) 23:47:48 145.865
YUBILEINY 01 Aug 23:41:01 23:48:49 41° 89° (E) 23:56:51 435.215
TIGRISAT 01 Aug 23:42:11 23:46:45 51° 285° (WNW) 23:51:18 435.000
ANTELSAT 01 Aug 23:44:21 23:48:53 46° 286° (WNW) 23:53:23 437.575/2403.000
AUBIESAT-1 01 Aug 23:52:27 23:55:03 14° 298° (WNW) 23:57:24 437.475
UKube-1 01 Aug 23:57:47 00:00:09 14° 268° (W) 00:02:18 .
O/OREOS (USA 219) 02 Aug 00:04:19 00:04:47 10° 100° (E) 00:05:33 437.305
AISAT 02 Aug 00:04:51 00:08:00 18° 266° (W) 00:11:00 437.250
AIST 2 02 Aug 00:10:36 00:14:46 62° 116° (ESE) 00:18:59 435.215
BEESAT 2 02 Aug 00:11:23 00:14:51 25° 306° (NW) 00:18:18 435.950
CUBEBUG 1 02 Aug 00:15:57 00:19:36 25° 265° (W) 00:23:08 437.445
VERMONT LUNAR 02 Aug 00:16:34 00:18:52 18° 216° (SW) 00:21:07 437.305
POLYITAN 1 02 Aug 00:22:13 00:26:16 42° 286° (WNW) 00:30:19 437.675
RS-15 02 Aug 00:25:32 00:32:56 19° 331° (NNW) 00:40:04 29.354- 29.394
AIST 1 02 Aug 00:30:30 00:32:50 14° 272° (W) 00:34:56
UNISAT 6 02 Aug 00:37:44 00:40:05 13° 292° (WNW) 00:42:12 437.425
BUGSAT 1 02 Aug 00:38:50 00:42:44 44° 285° (WNW) 00:46:39 437.445
POPSAT HIP 1 02 Aug 00:39:18 00:42:58 28° 288° (WNW) 00:46:34 437.405
SWISSCUBE 02 Aug 00:40:57 00:43:56 17° 68° (ENE) 00:47:07 437.505
PHONESAT 2.4 02 Aug 00:41:51 00:45:22 77° 26° (NNE) 00:48:51 2401.200-2431.200
QB50P2 02 Aug 00:47:29 00:50:48 22° 289° (WNW) 00:54:02 145.880/145.840
SPROUT 02 Aug 00:48:21 00:52:19 37° 262° (W) 00:56:16 437.525
TISAT 1 02 Aug 00:56:45 01:00:47 48° 260° (W) 01:04:51 437.305
ITUPSAT 1 02 Aug 01:01:22 01:05:13 25° 70° (ENE) 01:09:12 437.325
Oscar 19 02 Aug 01:03:03 01:05:57 16° 91° (E) 01:09:07 437.125/150
DUCHIFAT 1 02 Aug 01:12:20 01:14:18 13° 292° (WNW) 01:16:03 145.980
QB50P1 02 Aug 01:16:57 01:18:11 11° 292° (WNW) 01:19:11 145.935-145.965
NANOSAT C BR1 02 Aug 01:17:53 01:19:04 11° 292° (WNW) 01:19:59 145.865
Cosmos 2491 02 Aug 01:23:00 01:29:26 23° 276° (W) 01:35:29 435.465 / 435.565
YUBILEINY 02 Aug 01:37:45 01:45:42 37° 286° (WNW) 01:53:33 435.215
O/OREOS (USA 219) 02 Aug 01:39:23 01:43:45 54° 292° (WNW) 01:48:10 437.305
AIST 2 02 Aug 01:51:56 01:53:47 12° 313° (NW) 01:55:28 435.215
BEESAT 02 Aug 01:55:55 02:00:42 79° 258° (WSW) 02:05:32 436.000
Gurwin Techsat 1B 02 Aug 02:08:18 02:12:05 20° 93° (E) 02:16:03 435.225
STARS 02 Aug 02:08:23 02:09:20 11° 67° (ENE) 02:10:33 437.465
SWISSCUBE 02 Aug 02:16:56 02:21:30 42° 262° (W) 02:26:02 437.505
PHONESAT 2.4 02 Aug 02:20:37 02:23:04 18° 217° (SW) 02:25:26 2401.200-2431.200
JAS-2 02 Aug 02:24:52 02:29:03 16° 87° (E) 02:33:41 435.910
ITAMSAT 1 02 Aug 02:24:58 02:29:10 25° 95° (E) 02:33:28 435.822/435.867
KKS-1 02 Aug 02:34:06 02:38:11 39° 73° (ENE) 02:42:19 437.445
ITUPSAT 1 02 Aug 02:38:53 02:43:02 28° 264° (W) 02:47:05 437.325
Oscar 19 02 Aug 02:40:38 02:45:39 50° 287° (WNW) 02:50:38 437.125/150
Cosmos 2504 02 Aug 02:42:15 02:49:15 74° 94° (E) 02:56:47 435.465 / 435.565
RS-15 02 Aug 02:49:19 02:52:13 11° 8° (N) 02:55:22 29.354- 29.394
JUGNU 02 Aug 03:17:40 03:21:34 18° 172° (S) 03:25:30 437.505
SRMSAT 02 Aug 03:25:59 03:26:44 10° 164° (SSE) 03:27:38 437.500
MOZHAYETS 4 02 Aug 03:32:20 03:35:30 19° 70° (ENE) 03:38:51
HORYU 2 02 Aug 03:36:38 03:39:13 16° 92° (E) 03:42:01 437.375
ISS 02 Aug 03:37:23 03:40:30 43° 40° (NE) 03:43:37 145.825
STARS 02 Aug 03:41:04 03:45:21 56° 260° (W) 03:49:39 437.465
DANDE 02 Aug 03:43:57 03:45:59 15° 98° (E) 03:47:56 436.750
Gurwin Techsat 1B 02 Aug 03:47:17 03:52:15 40° 288° (WNW) 03:57:10 435.225
CUSAT 1 02 Aug 03:56:20 03:59:16 43° 97° (E) 04:01:50 437.405
ITAMSAT 1 02 Aug 04:04:08 04:08:41 31° 289° (WNW) 04:13:08 435.822/435.867
AO-7 02 Aug 04:06:37 04:14:22 42° 99° (E) 04:22:09 29.400- 29.500
JAS-2 02 Aug 04:07:06 04:15:01 86° 284° (WNW) 04:22:40 435.910
KKS-1 02 Aug 04:12:24 04:15:01 15° 268° (W) 04:17:25 437.445
GONETS M04 02 Aug 04:26:58 04:30:51 15° 82° (E) 04:35:25
Cosmos 2504 02 Aug 04:38:08 04:42:31 16° 294° (WNW) 04:46:35 435.465 / 435.565
RS-15 02 Aug 05:00:48 05:10:28 30° 41° (NE) 05:20:47 29.354- 29.394
JUGNU 02 Aug 05:05:40 05:09:58 21° 182° (S) 05:14:13 437.505
MOZHAYETS 4 02 Aug 05:08:16 05:12:30 34° 263° (W) 05:16:44
SRMSAT 02 Aug 05:11:20 05:15:15 18° 173° (S) 05:19:11 437.500
HORYU 2 02 Aug 05:11:50 05:16:03 39° 287° (WNW) 05:20:12 437.375
ISS 02 Aug 05:15:03 05:16:40 13° 232° (SW) 05:18:10 145.825
DANDE 02 Aug 05:27:41 05:29:01 12° 282° (WNW) 05:30:08 436.750
CUBESAT XI-V 02 Aug 05:28:23 05:32:17 27° 72° (ENE) 05:36:15 437.345
CUTE-I 02 Aug 05:41:36 05:42:38 11° 89° (E) 05:44:04 437.470
JAS-2 02 Aug 05:54:31 05:59:06 16° 299° (WNW) 06:03:10 435.910
AO-7 02 Aug 05:59:33 06:07:05 38° 295° (WNW) 06:14:25 29.400- 29.500
PRISM 02 Aug 06:08:27 06:10:49 15° 69° (ENE) 06:13:21 437.425
GONETS M04 02 Aug 06:18:00 06:26:44 88° 276° (W) 06:35:29
STRAND 1 02 Aug 06:22:39 06:27:11 33° 71° (ENE) 06:31:47 437.568
Cubesat XI-IV 02 Aug 06:22:53 06:27:34 32° 97° (E) 06:32:18 437.490
JUGNU 02 Aug 06:55:01 06:58:20 15° 192° (SSW) 07:01:34 437.505
SRMSAT 02 Aug 06:59:33 07:03:47 20° 182° (S) 07:08:01 437.500
CUBESAT XI-V 02 Aug 07:05:52 07:09:42 24° 265° (W) 07:13:25 437.345
RS-15 02 Aug 07:12:31 07:24:27 82° 243° (WSW) 07:36:43 29.354- 29.394
Cosmos 2499 02 Aug 07:15:04 07:21:59 48° 90° (E) 07:29:29 435.465 / 435.565
CUTE-I 02 Aug 07:18:02 07:23:20 72° 285° (WNW) 07:28:36 437.470
PCSat 02 Aug 07:23:22 07:25:16 12° 105° (ESE) 07:27:32 145.827
BEESAT 3 02 Aug 07:34:38 07:37:14 17° 50° (NE) 07:39:55 437.485
PRISM 02 Aug 07:42:06 07:45:59 35° 262° (W) 07:49:50 437.425
STRAND 1 02 Aug 08:02:16 08:06:26 24° 265° (W) 08:10:28 437.568
Cubesat XI-IV 02 Aug 08:03:09 08:07:34 26° 291° (WNW) 08:11:52 437.490
GONETS M04 02 Aug 08:20:20 08:25:03 14° 297° (WNW) 08:29:05
DOVE 4 02 Aug 08:22:00 08:25:48 24° 95° (E) 08:29:53 437.250
SEEDS 02 Aug 08:22:17 08:23:55 12° 91° (E) 08:25:48 437.485
HO-68 02 Aug 08:23:33 08:29:25 28° 95° (E) 08:35:28 435.675
SO-50 02 Aug 08:23:56 08:28:17 39° 113° (ESE) 08:32:49 436.795
CINEMA 3 02 Aug 08:25:41 08:26:28 11° 90° (E) 08:27:38 145.822/145.860
CUTE 1.7 + AOD 2 02 Aug 08:25:58 08:28:51 18° 93° (E) 08:31:52 437.475
M-CUBED/EXP-1 PRIME 02 Aug 08:32:40 08:35:34 20° 64° (ENE) 08:38:45 437.505
BEESAT 2 02 Aug 08:33:14 08:37:13 55° 59° (ENE) 08:41:09 435.950
BRITE-PL 02 Aug 08:33:32 08:38:01 85° 286° (WNW) 08:42:52 437.365/2234.400
CANX-2 02 Aug 08:34:00 08:37:33 25° 95° (E) 08:41:10 2200.000
AIST 2 02 Aug 08:37:23 08:39:30 14° 48° (NE) 08:41:47 435.215
GOMX 1 02 Aug 08:38:26 08:43:01 62° 100° (E) 08:47:57 467.674
AAUSAT CUBESAT 2 02 Aug 08:45:06 08:47:27 15° 92° (E) 08:49:59 437.432
SRMSAT 02 Aug 08:49:05 08:52:19 15° 192° (SSW) 08:55:26 437.500
AUBIESAT-1 02 Aug 09:00:01 09:03:39 34° 67° (ENE) 09:07:37 437.475
PCSat 02 Aug 09:02:47 09:08:10 69° 297° (WNW) 09:13:35 145.827
Cosmos 2499 02 Aug 09:09:24 09:15:32 26° 290° (WNW) 09:21:49 435.465 / 435.565
BEESAT 3 02 Aug 09:11:37 09:15:19 35° 246° (WSW) 09:18:56 437.485
RS-15 02 Aug 09:28:39 09:35:43 16° 258° (WSW) 09:41:46 29.354- 29.394
ZACube-1 02 Aug 09:38:27 09:41:32 18° 93° (E) 09:44:48 437.345
COMPASS 1 02 Aug 09:38:40 09:42:55 88° 110° (ESE) 09:47:06 437.405
UNISAT 6 02 Aug 09:54:46 09:58:26 28° 72° (ENE) 10:02:15 437.425
SEEDS 02 Aug 09:55:56 09:59:59 43° 286° (WNW) 10:03:58 437.485
DELFI C3 02 Aug 09:56:49 10:00:22 29° 96° (E) 10:03:56 145.870
YUBILEINY 02 Aug 09:57:42 10:02:09 15° 64° (ENE) 10:07:16 435.215
FUNcube-1 02 Aug 09:58:51 10:02:51 30° 96° (E) 10:06:55 145.935
CINEMA 3 02 Aug 09:59:21 10:04:04 65° 284° (WNW) 10:08:57 145.822/145.860
DOVE 4 02 Aug 09:59:27 10:03:32 29° 287° (WNW) 10:07:43 437.250
CUTE 1.7 + AOD 2 02 Aug 10:01:02 10:04:50 30° 287° (WNW) 10:08:32 437.475
QB50P2 02 Aug 10:02:35 10:04:07 12° 68° (ENE) 10:05:53 145.880/145.840
UWE-3 02 Aug 10:04:00 10:08:30 49° 99° (E) 10:13:02 435.000/436.395/437.385
SO-50 02 Aug 10:05:18 10:09:00 22° 310° (NW) 10:12:42 436.795
M-CUBED/EXP-1 PRIME 02 Aug 10:06:41 10:10:10 28° 261° (W) 10:13:50 437.505
Oscar 11 02 Aug 10:09:17 10:13:39 70° 101° (E) 10:17:58 145.826/435.025
CANX-2 02 Aug 10:10:01 10:13:22 22° 289° (WNW) 10:16:35 2200.000
HO-68 02 Aug 10:10:32 10:17:23 48° 290° (WNW) 10:24:09 435.675
AIST 2 02 Aug 10:14:22 10:18:24 48° 245° (WSW) 10:22:20 435.215
HUMSAT D 02 Aug 10:15:09 10:18:00 18° 93° (E) 10:21:01 437.325/437.525
O/OREOS (USA 219) 02 Aug 10:15:56 10:17:47 12° 57° (ENE) 10:19:52 437.305
GOMX 1 02 Aug 10:19:14 10:20:50 11° 291° (WNW) 10:22:10 467.674
AAUSAT CUBESAT 2 02 Aug 10:19:22 10:23:12 34° 286° (WNW) 10:26:57 437.432
CUBEBUG 2 02 Aug 10:22:01 10:26:43 80° 282° (WNW) 10:31:28 437.445
DUCHIFAT 1 02 Aug 10:24:04 10:27:06 20° 71° (ENE) 10:30:15 145.980
QB50P1 02 Aug 10:28:02 10:31:21 24° 72° (ENE) 10:34:45 145.935-145.965
NANOSAT C BR1 02 Aug 10:28:43 10:32:02 24° 72° (ENE) 10:35:26 145.865
Cosmos 2491 02 Aug 10:30:29 10:33:13 12° 81° (E) 10:36:45 435.465 / 435.565
AUBIESAT-1 02 Aug 10:36:02 10:38:34 16° 265° (W) 10:41:03 437.475
TIGRISAT 02 Aug 10:36:50 10:41:08 87° 78° (ENE) 10:45:35 435.000
ANTELSAT 02 Aug 10:39:11 10:43:30 84° 258° (WSW) 10:47:58 437.575/2403.000
DX 1 02 Aug 10:41:30 10:44:54 23° 96° (E) 10:48:24 434.975-435.025
VELOX 1 02 Aug 11:00:44 11:04:05 22° 95° (E) 11:07:34 145.980
POLYITAN 1 02 Aug 11:10:52 11:15:03 84° 77° (ENE) 11:19:16 437.675
ZACube-1 02 Aug 11:13:50 11:17:59 34° 287° (WNW) 11:22:07 437.345
50 SAT 02 Aug 11:16:24 11:20:10 41° 98° (E) 11:23:56 437.505
AIST 1 02 Aug 11:17:10 11:20:43 25° 91° (E) 11:24:21
ESTCUBE 1 02 Aug 11:17:23 11:20:58 24° 95° (E) 11:24:38 437.505/2401.250
BUGSAT 1 02 Aug 11:24:39 11:28:41 71° 77° (ENE) 11:32:42 437.445
POPSAT HIP 1 02 Aug 11:27:28 11:31:37 61° 260° (W) 11:35:46 437.405
UNISAT 6 02 Aug 11:31:58 11:35:15 20° 267° (W) 11:38:28 437.425
DELFI C3 02 Aug 11:32:34 11:35:13 17° 290° (WNW) 11:37:43 145.870
FUNcube-1 02 Aug 11:35:31 11:39:00 21° 289° (WNW) 11:42:22 145.935
QB50P2 02 Aug 11:35:36 11:39:38 46° 261° (W) 11:43:42 145.880/145.840
UWE-3 02 Aug 11:42:07 11:44:39 14° 291° (WNW) 11:46:59 435.000/436.395/437.385
UKube-1 02 Aug 11:46:43 11:50:59 62° 285° (WNW) 11:55:14 .
HUMSAT D 02 Aug 11:49:57 11:53:49 31° 287° (WNW) 11:57:37 437.325/437.525
YUBILEINY 02 Aug 11:51:32 12:00:25 90° 103° (ESE) 12:09:16 435.215
O/OREOS (USA 219) 02 Aug 11:53:08 11:57:38 56° 254° (WSW) 12:02:08 437.305
AISAT 02 Aug 11:57:41 12:02:06 73° 284° (WNW) 12:06:30 437.250
DUCHIFAT 1 02 Aug 11:59:15 12:02:46 26° 264° (W) 12:06:15 145.980
QB50P1 02 Aug 12:03:50 12:07:10 22° 265° (W) 12:10:23 145.935-145.965
NANOSAT C BR1 02 Aug 12:04:31 12:07:49 22° 265° (W) 12:11:02 145.865
CUBEBUG 1 02 Aug 12:07:39 12:11:59 79° 101° (ESE) 12:16:19 437.445
Oscar 19 02 Aug 12:16:38 12:19:32 16° 67° (ENE) 12:22:41 437.125/150
DX 1 02 Aug 12:17:31 12:21:06 25° 289° (WNW) 12:24:34 434.975-435.025
Cosmos 2491 02 Aug 12:20:14 12:29:00 83° 95° (E) 12:37:47 435.465 / 435.565
Cosmos 2504 02 Aug 12:33:46 12:39:26 20° 68° (ENE) 12:45:36 435.465 / 435.565
VELOX 1 02 Aug 12:36:54 12:40:37 27° 288° (WNW) 12:44:17 145.980
SPROUT 02 Aug 12:38:27 12:42:37 48° 99° (E) 12:46:48 437.525
TISAT 1 02 Aug 12:45:03 12:48:50 32° 97° (E) 12:52:40 437.305
50 SAT 02 Aug 12:52:46 12:54:23 12° 291° (WNW) 12:55:49 437.505
ESTCUBE 1 02 Aug 12:54:04 12:57:47 25° 289° (WNW) 13:01:24 437.505/2401.250
AIST 1 02 Aug 12:55:04 12:58:22 20° 285° (WNW) 13:01:32
Gurwin Techsat 1B 02 Aug 13:25:43 13:29:43 23° 69° (ENE) 13:33:53 435.225
ITAMSAT 1 02 Aug 13:39:14 13:43:31 27° 70° (ENE) 13:47:55 435.822/435.867
YUBILEINY 02 Aug 13:51:42 13:56:15 14° 279° (W) 14:00:05 435.215
Oscar 19 02 Aug 13:53:33 13:58:31 51° 260° (W) 14:03:30 437.125/150
BEESAT 02 Aug 14:00:22 14:04:43 35° 97° (E) 14:09:06 436.000
JAS-2 02 Aug 14:15:51 14:20:47 27° 66° (ENE) 14:26:24 435.910
SPROUT 02 Aug 14:16:31 14:18:20 12° 292° (WNW) 14:19:54 437.525
SWISSCUBE 02 Aug 14:20:52 14:25:38 68° 102° (ESE) 14:30:21 437.505
Cosmos 2491 02 Aug 14:21:31 14:27:06 17° 295° (WNW) 14:32:07 435.465 / 435.565
TISAT 1 02 Aug 14:21:36 14:24:22 17° 290° (WNW) 14:26:59 437.305
Cosmos 2504 02 Aug 14:24:02 14:32:32 75° 266° (W) 14:41:06 435.465 / 435.565
DANDE 02 Aug 14:24:42 14:26:45 13° 77° (ENE) 14:29:21 436.750
KKS-1 02 Aug 14:32:12 14:32:28 10° 90° (E) 14:33:04 437.445
CUSAT 1 02 Aug 14:32:43 14:36:48 30° 80° (E) 14:42:04 437.405
ITUPSAT 1 02 Aug 14:42:34 14:47:21 79° 284° (WNW) 14:52:07 437.325
AO-7 02 Aug 15:01:19 15:08:55 42° 66° (ENE) 15:16:39 29.400- 29.500
Gurwin Techsat 1B 02 Aug 15:04:35 15:09:30 37° 262° (W) 15:14:24 435.225
ITAMSAT 1 02 Aug 15:18:22 15:22:57 30° 264° (W) 15:27:28 435.822/435.867
STARS 02 Aug 15:34:41 15:38:43 34° 98° (E) 15:42:46 437.465
BEESAT 02 Aug 15:38:52 15:42:21 20° 291° (WNW) 15:45:40 436.000
JAS-2 02 Aug 15:59:59 16:05:35 41° 264° (W) 16:11:52 435.910
SWISSCUBE 02 Aug 16:01:41 16:02:58 11° 294° (WNW) 16:03:56 437.505
KKS-1 02 Aug 16:05:07 16:09:31 57° 285° (WNW) 16:13:53 437.445
HORYU 2 02 Aug 16:05:40 16:10:05 69° 259° (WSW) 16:14:33 437.375
DANDE 02 Aug 16:05:41 16:09:43 43° 262° (W) 16:15:03 436.750
CUSAT 1 02 Aug 16:15:21 16:19:18 24° 264° (W) 16:23:59 437.405
Cosmos 2504 02 Aug 16:21:09 16:23:41 11° 280° (W) 16:25:24 435.465 / 435.565
